COSMOS 1275 DEB

Satellite information

Favourite Embed

Satellite Type and Status

DEBRISIN ORBIT

Key statistics

Satellite COSMOS 1275 DEB at a glance.

Uptime

16105

Days in orbit

Revolutions

≈ 13.6

Per day

Orbit

LEO

Low Earth Orbit

Inclination

83.1

Latest

Satellite identification and parameters

Extended collection of information and parameters for COSMOS 1275 DEB.

Object identification

Identified? True

Debris? True

Object name: COSMOS 1275 DEB

International designator: 1981-053LB

Object number (NORAD): 17632

Object ID (CCSDS): 17632

Country: COMMONWEALTH OF INDEPENDENT STATES (CIS)

Current information (Y/N): Y

RCS size: SMALL

Orbital parameters

Period: 105.695 minutes

Inclination: 83.0833 deg

SMA: 7405.093 km

Apoapsis: 1134.72 km

Periapsis: 919.197 km

RAAN: 92.5695 deg

Eccentricy: 0.0145524

Argument of periapsis: 101.7812 deg

Mean anomaly: 288.2726 deg

Mean motion: 13.62407245 rev/day

Mean motion (dot): 0.00000943 rev/day2

B* drag term: 0.001113 1/REarth

Two-line elements (TLE)

Creation date: July 6, 2025, 4:10 a.m.

Reference frame: TEME

Reference center: EARTH

Epoch: July 5, 2025, 4:53 p.m. UTC

TLE line 0: 0 COSMOS 1275 DEB

TLE line 1: 1 17632U 81053LB 25186.70368657 .00000943 00000-0 11130-2 0 9994

TLE line 2: 2 17632 83.0833 92.5695 0145524 101.7812 288.2726 13.62407245988580

Live tracking on map

Real-time ground track for satellite COSMOS 1275 DEB.

In-orbit conjunctions

A list of the most updated potential collisions computed for object COSMOS 1275 DEB.

Target Orbit TCA Probability of collision Miss distance Type
FENGYUN 1C DEB SSO 2024-10-15 10:22:09 0.0002064548 104.0 (m) DEBRIS
THOR ABLESTAR DEB LEO 2024-09-19 00:04:18 0.0003701198 56.0 (m) DEBRIS

Associated space launch

Navigation satellite providing location information for the Tsiklon-B navigation system

COSMOS 1275 DEB was lifted into orbit during the mission ‘Kosmos-3M | Parus 27’, on board a Kosmos-3M space rocket.

The launch took place on June 4, 1981, 3:41 p.m. from 132/2.

For more information about the launch, click the button.

Launch to space Kosmos-3M | Parus 27
Kosmos-3M | Parus 27

Agency: N/A

Status: Launch Successful

Launch date: June 4, 1981, 3:41 p.m. UTC

Rocket: Kosmos-3M

Launch pad: 132/2

Location: Plesetsk Cosmodrome, Russian Federation

...

Latest news about this satellite

There are no fresh news available about this satellite. Check back as we update our databases every day.


Newsletter sign-up

Weekly statistics, charts and insights to help you stay on top of the space industry.